• En España
  • Lista de países
  • Para 7 días
  • Temperatura del agua
  • Mapa Satelital
  • El tiempo en el mapa
  • Informadores
  • user-avatar
    Iniciar sesión

    Tiempo cada hora Maloe Loshakovo

    Hoy, 27 Mayo, Domingo

    Tiempo Temperatura Precipitaciones Viento Presión Humedad
    00:00 +13°C° 0 mm 2 mps 757 mmHg 75%
    01:00 +13°C° 0 mm 2 mps 757 mmHg 76%
    02:00 +13°C° 0 mm 2 mps 757 mmHg 77%
    03:00 +12°C° 0 mm 3 mps 757 mmHg 76%
    04:00 +13°C° 0 mm 3 mps 756 mmHg 76%
    05:00 +13°C° 0 mm 3 mps 756 mmHg 75%
    06:00 +16°C° 0 mm 3 mps 756 mmHg 70%
    07:00 +18°C° 0 mm 4 mps 755 mmHg 65%
    08:00 +20°C° 0 mm 4 mps 755 mmHg 60%
    09:00 +21°C° 0 mm 4 mps 755 mmHg 56%
    10:00 +23°C° 0 mm 5 mps 754 mmHg 52%
    11:00 +25°C° 0 mm 5 mps 754 mmHg 48%
    12:00 +25°C° 0 mm 5 mps 754 mmHg 46%
    13:00 +25°C° 0 mm 5 mps 754 mmHg 45%
    14:00 +26°C° 0 mm 5 mps 753 mmHg 43%
    15:00 +25°C° 0 mm 5 mps 753 mmHg 42%
    16:00 +23°C° 0 mm 5 mps 753 mmHg 40%
    17:00 +22°C° 0 mm 4 mps 753 mmHg 39%
    18:00 +19°C° 0 mm 4 mps 754 mmHg 43%
    19:00 +17°C° 0 mm 3 mps 755 mmHg 48%
    20:00 +14°C° 0 mm 3 mps 755 mmHg 52%
    21:00 +13°C° 0 mm 3 mps 756 mmHg 51%
    22:00 +12°C° 0 mm 3 mps 757 mmHg 50%
    23:00 +10°C° 0 mm 2 mps 757 mmHg 49%

    Mañana, 28 Mayo, Lunes

    Tiempo Temperatura Precipitaciones Viento Presión Humedad
    00:00 +9°C° 0 mm 2 mps 758 mmHg 51%
    01:00 +8°C° 0 mm 2 mps 759 mmHg 52%
    02:00 +7°C° 0 mm 2 mps 759 mmHg 53%
    03:00 +8°C° 0 mm 2 mps 760 mmHg 53%
    04:00 +8°C° 0 mm 2 mps 760 mmHg 53%
    05:00 +8°C° 0 mm 2 mps 760 mmHg 53%
    06:00 +10°C° 0 mm 2 mps 761 mmHg 47%
    07:00 +13°C° 0 mm 2 mps 761 mmHg 41%
    08:00 +14°C° 0 mm 2 mps 761 mmHg 35%
    09:00 +16°C° 0 mm 2 mps 761 mmHg 33%
    10:00 +17°C° 0 mm 2 mps 761 mmHg 31%
    11:00 +18°C° 0 mm 2 mps 761 mmHg 29%
    12:00 +19°C° 0 mm 2 mps 761 mmHg 28%
    13:00 +20°C° 0 mm 2 mps 761 mmHg 28%
    14:00 +20°C° 0 mm 2 mps 761 mmHg 28%
    15:00 +20°C° 0 mm 2 mps 760 mmHg 29%
    16:00 +21°C° 0 mm 1 mps 760 mmHg 31%
    17:00 +21°C° 0 mm 1 mps 760 mmHg 33%
    18:00 +19°C° 0 mm 1 mps 760 mmHg 41%
    19:00 +16°C° 0 mm 1 mps 760 mmHg 48%
    20:00 +12°C° 0 mm 0 mps 759 mmHg 55%
    21:00 +13°C° 0 mm 1 mps 760 mmHg 56%
    22:00 +12°C° 0 mm 1 mps 760 mmHg 57%
    23:00 +11°C° 0 mm 1 mps 760 mmHg 59%

    Pasado mañana, 29 Mayo, Martes

    Tiempo Temperatura Precipitaciones Viento Presión Humedad
    00:00 +10°C° 0 mm 1 mps 760 mmHg 60%
    01:00 +10°C° 0 mm 1 mps 760 mmHg 61%
    02:00 +9°C° 0 mm 2 mps 760 mmHg 63%
    03:00 +9°C° 0 mm 2 mps 760 mmHg 63%
    04:00 +10°C° 0 mm 2 mps 760 mmHg 63%
    05:00 +10°C° 0 mm 2 mps 759 mmHg 62%
    06:00 +14°C° 0 mm 2 mps 759 mmHg 56%
    07:00 +16°C° 0 mm 2 mps 759 mmHg 50%
    08:00 +18°C° 0 mm 3 mps 758 mmHg 44%
    09:00 +20°C° 0 mm 3 mps 758 mmHg 40%
    10:00 +21°C° 0 mm 3 mps 757 mmHg 37%
    11:00 +22°C° 0 mm 3 mps 756 mmHg 33%
    12:00 +24°C° 0 mm 3 mps 756 mmHg 33%
    13:00 +23°C° 0 mm 4 mps 755 mmHg 33%
    14:00 +25°C° 0 mm 4 mps 754 mmHg 32%
    15:00 +25°C° 0 mm 4 mps 754 mmHg 35%
    16:00 +23°C° 0 mm 4 mps 753 mmHg 38%
    17:00 +23°C° 0 mm 4 mps 752 mmHg 41%
    18:00 +21°C° 0 mm 3 mps 752 mmHg 51%
    19:00 +19°C° 0 mm 3 mps 751 mmHg 60%
    20:00 +17°C° 0 mm 2 mps 751 mmHg 70%
    21:00 +17°C° 0 mm 2 mps 751 mmHg 72%
    22:00 +16°C° 0 mm 2 mps 750 mmHg 75%
    23:00 +14°C° 0 mm 3 mps 750 mmHg 78%

    30 Mayo, Miércoles

    Tiempo Temperatura Precipitaciones Viento Presión Humedad
    00:00 +14°C° 0 mm 3 mps 749 mmHg 78%
    01:00 +14°C° 0 mm 3 mps 749 mmHg 78%
    02:00 +13°C° 0 mm 3 mps 749 mmHg 79%
    03:00 +14°C° 0 mm 4 mps 748 mmHg 78%
    04:00 +15°C° 0 mm 4 mps 748 mmHg 77%
    05:00 +17°C° 0 mm 4 mps 747 mmHg 76%
    06:00 +17°C° 0 mm 5 mps 747 mmHg 70%
    07:00 +20°C° 0 mm 5 mps 746 mmHg 63%
    08:00 +22°C° 0 mm 6 mps 745 mmHg 57%
    09:00 +23°C° 0 mm 6 mps 745 mmHg 52%
    10:00 +24°C° 0 mm 7 mps 744 mmHg 47%
    11:00 +26°C° 0 mm 7 mps 744 mmHg 42%
    12:00 +26°C° 0 mm 7 mps 743 mmHg 43%
    13:00 +24°C° 0 mm 6 mps 743 mmHg 44%
    14:00 +24°C° 0 mm 6 mps 742 mmHg 45%
    15:00 +23°C° 0 mm 6 mps 742 mmHg 43%
    16:00 +22°C° 0 mm 6 mps 743 mmHg 41%
    17:00 +20°C° 0 mm 7 mps 743 mmHg 39%
    18:00 +17°C° 0 mm 5 mps 743 mmHg 43%
    19:00 +15°C° 0 mm 4 mps 744 mmHg 46%
    20:00 +12°C° 0 mm 3 mps 745 mmHg 50%
    21:00 +11°C° 0 mm 3 mps 745 mmHg 53%
    22:00 +10°C° 0 mm 3 mps 746 mmHg 57%
    23:00 +9°C° 0 mm 3 mps 746 mmHg 60%

    31 Mayo, Jueves

    Tiempo Temperatura Precipitaciones Viento Presión Humedad
    00:00 +8°C° 0 mm 3 mps 747 mmHg 63%
    01:00 +7°C° 0 mm 3 mps 747 mmHg 67%
    02:00 +5°C° 0 mm 3 mps 747 mmHg 70%
    03:00 +5°C° 0 mm 3 mps 748 mmHg 67%
    04:00 +4°C° 0 mm 3 mps 748 mmHg 65%
    05:00 +4°C° 0 mm 4 mps 748 mmHg 62%
    06:00 +5°C° 0 mm 4 mps 749 mmHg 55%
    07:00 +7°C° 0 mm 3 mps 749 mmHg 48%
    08:00 +8°C° 0 mm 3 mps 749 mmHg 41%
    09:00 +10°C° 0 mm 4 mps 749 mmHg 37%
    10:00 +11°C° 0 mm 4 mps 749 mmHg 33%
    11:00 +12°C° 0 mm 4 mps 749 mmHg 28%
    12:00 +13°C° 0 mm 4 mps 749 mmHg 28%
    13:00 +13°C° 0 mm 4 mps 749 mmHg 28%
    14:00 +14°C° 0 mm 4 mps 749 mmHg 28%
    15:00 +14°C° 0 mm 4 mps 749 mmHg 30%
    16:00 +14°C° 0 mm 4 mps 749 mmHg 32%
    17:00 +13°C° 0 mm 4 mps 749 mmHg 34%
    18:00 +12°C° 0 mm 3 mps 749 mmHg 40%
    19:00 +10°C° 0 mm 3 mps 749 mmHg 46%
    20:00 +9°C° 0 mm 3 mps 749 mmHg 52%
    21:00 +7°C° 0 mm 3 mps 750 mmHg 54%
    22:00 +5°C° 0 mm 3 mps 750 mmHg 57%
    23:00 +4°C° 0 mm 3 mps 751 mmHg 59%

    1 Junio, Viernes

    Tiempo Temperatura Precipitaciones Viento Presión Humedad
    00:00 +3°C° 0 mm 3 mps 751 mmHg 63%
    01:00 +3°C° 0 mm 2 mps 751 mmHg 67%
    02:00 +2°C° 0 mm 2 mps 751 mmHg 70%
    03:00 +2°C° 0 mm 2 mps 751 mmHg 68%
    04:00 +2°C° 0 mm 3 mps 751 mmHg 66%
    05:00 +2°C° 0 mm 3 mps 752 mmHg 64%
    06:00 +4°C° 0 mm 3 mps 752 mmHg 57%
    07:00 +5°C° 0 mm 3 mps 752 mmHg 50%
    08:00 +8°C° 0 mm 3 mps 752 mmHg 44%
    09:00 +8°C° 0 mm 4 mps 752 mmHg 41%
    10:00 +10°C° 0 mm 4 mps 752 mmHg 38%
    11:00 +11°C° 0 mm 4 mps 752 mmHg 35%
    12:00 +11°C° 0 mm 4 mps 752 mmHg 33%
    13:00 +12°C° 0 mm 4 mps 751 mmHg 32%
    14:00 +13°C° 0 mm 4 mps 751 mmHg 30%
    15:00 +13°C° 0 mm 4 mps 751 mmHg 31%
    16:00 +12°C° 0 mm 4 mps 751 mmHg 32%
    17:00 +12°C° 0 mm 3 mps 751 mmHg 33%
    18:00 +11°C° 0 mm 3 mps 751 mmHg 39%
    19:00 +9°C° 0 mm 2 mps 751 mmHg 46%
    20:00 +8°C° 0 mm 2 mps 751 mmHg 52%
    21:00 +7°C° 0 mm 2 mps 752 mmHg 54%
    22:00 +6°C° 0 mm 2 mps 752 mmHg 56%
    23:00 +5°C° 0 mm 2 mps 752 mmHg 57%
    Mostrar más